Seward, AK

1:12 AM AKDT on August 24, 2016 (GMT -0800)
Seward

Weather History for PAWD - March, 2013

Change the Weather History Date:

Thursday, March 28, 2013

  Actual Average Record
Temperature  
Mean Temperature 29 °F -  
Max Temperature 35 °F 40 °F 52 °F (1970)
Min Temperature 24 °F 28 °F 3 °F (1971)
Degree Days  
Heating Degree Days 36    
Moisture  
Dew Point 24 °F    
Average Humidity 82    
Maximum Humidity 93    
Minimum Humidity 66    
Precipitation  
Precipitation 0.12 in - - ()
Sea Level Pressure  
Sea Level Pressure 30.08 in    
Wind  
Wind Speed 2 mph (NNW)    
Max Wind Speed 7 mph    
Max Gust Speed -    
Visibility 4 miles    
Events Snow    
Averages and records for this station are not official NWS values.
T = Trace of Precipitation, MM = Missing Value Source: NWS Daily Summary

Daily Weather History Graph

Daily Weather History Graph

Search for Another Location

Airport or City:

Trip Planner

Search our weather history database for the weather conditions in past years. The results will help you decide how hot, cold, wet, or windy it might be!

Date:

Astronomy

Mar. 28, 2013 Rise Set
Actual Time 7:33 AM AKDT 8:33 PM AKDT
Civil Twilight 6:50 AM AKDT 9:15 PM AKDT
Nautical Twilight 5:58 AM AKDT 10:08 PM AKDT
Astronomical Twilight 4:59 AM AKDT 11:09 PM AKDT
Moon 11:19 PM AKDT (3/28) 7:36 AM AKDT (3/28)
Length of Visible Light 14h 24m
Length of Day
12h 59m
Full, 97% of the Moon is Illuminated
Mar 28
Full
Apr 2
Last Quarter
Apr 10
New
Apr 18
First Quarter
Apr 25
Full

Hourly Weather History & Observations

Time (AKDT) Temp. Windchill Dew Point Humidity Pressure Visibility Wind Dir Wind Speed Gust Speed Precip Events Conditions
12:53 AM 25.0 °F 17.1 °F 15.1 °F 66% 30.22 in 10.0 mi NNW 6.9 mph - N/A   Overcast
1:53 AM 26.1 °F 21.9 °F 16.0 °F 66% 30.21 in 10.0 mi North 3.5 mph - N/A   Overcast
2:53 AM 25.0 °F 20.7 °F 16.0 °F 69% 30.20 in 10.0 mi NNW 3.5 mph - N/A   Overcast
3:53 AM 25.0 °F 20.7 °F 17.1 °F 72% 30.19 in 10.0 mi WNW 3.5 mph - 0.00 in   Overcast
4:53 AM 25.0 °F - 19.0 °F 78% 30.19 in 7.0 mi Calm Calm - 0.00 in Snow Light Snow
5:35 AM 24.8 °F 20.5 °F 19.4 °F 80% 30.18 in 2.5 mi NNW 3.5 mph - 0.00 in Snow Light Snow
5:53 AM 25.0 °F - 21.0 °F 85% 30.18 in 2.0 mi Calm Calm - 0.00 in Snow Light Snow
6:01 AM 24.8 °F 20.5 °F 21.2 °F 86% 30.17 in 2.0 mi Variable 3.5 mph - 0.00 in Snow Light Snow
6:15 AM 24.8 °F 20.5 °F 21.2 °F 86% 30.17 in 1.8 mi NNW 3.5 mph - 0.00 in Snow Light Snow
6:24 AM 24.8 °F - 21.2 °F 86% 30.17 in 2.0 mi Calm Calm - 0.00 in Snow Light Snow
6:36 AM 24.8 °F - 21.2 °F 86% 30.17 in 3.0 mi Calm Calm - 0.00 in Snow Light Snow
6:43 AM 24.8 °F - 21.2 °F 86% 30.17 in 4.0 mi Calm Calm - 0.00 in Snow Light Snow
6:53 AM 25.0 °F - 21.9 °F 88% 30.17 in 5.0 mi Calm Calm - 0.00 in Snow Light Snow
7:53 AM 26.1 °F - 21.0 °F 81% 30.15 in 1.8 mi Calm Calm - 0.00 in Snow Light Snow
8:01 AM 26.6 °F - 21.2 °F 80% 30.15 in 1.5 mi Calm Calm - 0.00 in Snow Light Snow
8:26 AM 26.6 °F 22.6 °F 21.2 °F 80% 30.14 in 1.0 mi WNW 3.5 mph - 0.00 in Snow Light Snow
8:39 AM 26.6 °F - 21.2 °F 80% 30.14 in 0.8 mi Calm Calm - 0.00 in Snow Light Snow
8:49 AM 26.6 °F 22.6 °F 21.2 °F 80% 30.14 in 1.0 mi NNW 3.5 mph - 0.00 in Snow Light Snow
8:53 AM 26.1 °F 20.5 °F 21.9 °F 84% 30.14 in 1.5 mi NNW 4.6 mph - 0.00 in Snow Light Snow
9:13 AM 26.6 °F 22.6 °F 21.2 °F 80% 30.14 in 2.0 mi NNW 3.5 mph - 0.00 in Snow Light Snow
9:25 AM 26.6 °F 20.0 °F 23.0 °F 86% 30.13 in 2.0 mi NNW 5.8 mph - 0.00 in Snow Light Snow
9:30 AM 26.6 °F 21.2 °F 21.2 °F 80% 30.13 in 1.8 mi Variable 4.6 mph - 0.00 in Snow Light Snow
9:51 AM 26.6 °F 21.2 °F 23.0 °F 86% 30.13 in 2.5 mi North 4.6 mph - 0.00 in Snow Light Snow
9:53 AM 28.0 °F 24.2 °F 23.0 °F 81% 30.13 in 2.5 mi North 3.5 mph - 0.00 in Snow Light Snow
10:31 AM 28.4 °F - 23.0 °F 80% 30.13 in 1.8 mi Calm Calm - 0.00 in Snow Light Snow
10:40 AM 28.4 °F - 24.8 °F 86% 30.13 in 2.5 mi Calm Calm - 0.01 in Snow Light Snow
10:48 AM 28.4 °F - 24.8 °F 86% 30.13 in 2.5 mi Calm Calm - 0.03 in Snow Light Snow
10:53 AM 28.9 °F - 24.1 °F 82% 30.13 in 2.5 mi Calm Calm - 0.04 in Snow Light Snow
11:04 AM 30.2 °F - 24.8 °F 80% 30.12 in 4.0 mi Calm Calm - 0.02 in Snow Light Snow
11:53 AM 30.9 °F 27.5 °F 23.0 °F 72% 30.11 in 10.0 mi SW 3.5 mph - 0.02 in   Overcast
12:53 PM 32.0 °F - 24.1 °F 73% 30.09 in 10.0 mi Calm Calm - N/A   Overcast
1:36 PM 30.2 °F - 24.8 °F 80% 30.08 in 8.0 mi Calm Calm - N/A   Overcast
1:53 PM 32.0 °F - 26.1 °F 79% 30.07 in 10.0 mi Calm Calm - N/A   Overcast
2:53 PM 32.0 °F 27.5 °F 25.0 °F 75% 30.06 in 10.0 mi ESE 4.6 mph - N/A   Overcast
3:53 PM 33.1 °F - 27.0 °F 78% 30.05 in 5.0 mi Calm Calm - 0.00 in Snow Light Snow
4:05 PM 33.8 °F 30.8 °F 26.6 °F 75% 30.04 in 4.0 mi Variable 3.5 mph - 0.00 in Snow Light Snow
4:21 PM 33.8 °F 29.6 °F 26.6 °F 75% 30.03 in 7.0 mi WSW 4.6 mph - 0.00 in Snow Light Snow
4:53 PM 34.0 °F 31.0 °F 26.1 °F 73% 30.02 in 10.0 mi Variable 3.5 mph - 0.00 in   Overcast
5:20 PM 33.8 °F - 26.6 °F 75% 30.01 in 4.0 mi Calm Calm - 0.00 in Snow Light Snow
5:31 PM 33.8 °F - 26.6 °F 75% 30.01 in 2.0 mi Calm Calm - 0.01 in Snow Light Snow
5:53 PM 33.1 °F 30.0 °F 28.0 °F 82% 30.01 in 1.2 mi WSW 3.5 mph - 0.01 in Snow Light Snow
6:14 PM 33.8 °F - 28.4 °F 81% 30.00 in 1.0 mi Calm Calm - 0.02 in Snow Light Snow
6:40 PM 32.0 °F - 28.4 °F 87% 29.99 in 1.2 mi Calm Calm - 0.02 in Snow Light Snow
6:53 PM 32.0 °F - 28.9 °F 88% 29.99 in 1.5 mi Calm Calm - 0.03 in Snow Light Snow
7:16 PM 32.0 °F - 28.4 °F 87% 29.99 in 1.0 mi Calm Calm - 0.00 in Snow Light Snow
7:30 PM 32.0 °F - 28.4 °F 87% 29.98 in 0.8 mi Calm Calm - 0.02 in Snow Light Snow
7:53 PM 32.0 °F - 30.0 °F 92% 29.98 in 0.8 mi Calm Calm - 0.02 in Snow Light Snow
8:29 PM 32.0 °F - 30.2 °F 93% 29.97 in 1.2 mi Calm Calm - 0.00 in Snow Light Snow
8:48 PM 32.0 °F - 28.4 °F 87% 29.97 in 2.5 mi Calm Calm - 0.00 in Snow Light Snow
8:53 PM 32.0 °F - 28.9 °F 88% 29.97 in 3.0 mi Calm Calm - 0.00 in Snow Light Snow
8:57 PM 32.0 °F 26.4 °F 28.4 °F 87% 29.97 in 2.5 mi NNE 5.8 mph - 0.00 in Snow Light Snow
9:10 PM 32.0 °F 28.7 °F 28.4 °F 87% 29.97 in 3.0 mi NNE 3.5 mph - 0.00 in Snow Light Snow
9:39 PM 32.0 °F - 28.4 °F 87% 29.96 in 2.5 mi Calm Calm - 0.00 in Snow Light Snow
9:53 PM 32.0 °F 28.7 °F 28.0 °F 85% 29.96 in 2.5 mi WNW 3.5 mph - 0.00 in Snow Light Snow
10:04 PM 32.0 °F - 28.4 °F 87% 29.95 in 1.5 mi Calm Calm - 0.00 in Snow Light Snow
10:53 PM 32.0 °F - 28.0 °F 85% 29.96 in 1.0 mi Calm Calm - 0.00 in Snow Light Snow
11:22 PM 32.0 °F - 30.2 °F 93% 29.96 in 0.8 mi Calm Calm - 0.00 in Snow Light Snow
11:29 PM 30.2 °F - 28.4 °F 93% 29.96 in 0.8 mi Calm Calm - 0.00 in Snow Light Snow
11:53 PM 32.0 °F 28.7 °F 30.0 °F 92% 29.95 in 0.8 mi NW 3.5 mph - 0.00 in Snow Light Snow